Regional Weather Roundup
Issued by NWS Bismarck, ND

Home | Current Version | Previous Version | Text Only | Print | Product List | Glossary On
Versions: 1 2 3 4 5 6 7 8 9 10 11 12 13 14 15 16 17 18 19 20 21 22 23 24 25 26 27 28 29 30 31 32 33 34 35 36 37 38 39 40 41 42 43 44 45 46 47 48 49 50
000
ASUS43 KBIS 092002
RWRBIS

NWR BROADCAST TEXT
NATIONAL WEATHER SERVICE BISMARCK ND
200 PM CST FRI DEC 09 2016

NOTE: "FAIR" INDICATES FEW OR NO CLOUDS BELOW 12,000 FEET WITH NO
SIGNIFICANT WEATHER AND/OR OBSTRUCTIONS TO VISIBILITY.


CITY           SKY/WX    TMP DP  RH WIND       PRES   REMARKS
WILLISTON      SUNNY     -3 -11  68 CALM      30.55F
MINOT          SUNNY     -9 -15  75 NW12      30.53F WCI -28
MINOT AFB      SUNNY    -10 -17  74 NW10      30.53F WCI -29
BISMARCK       PTSUNNY   -1  -7  75 NW12      30.54F WCI -18
DICKINSON      SUNNY     -6 -11  79 W6        30.43F WCI -19
GARRISON         N/A     -6 -12  75 NW12      30.51F WCI -25
HETTINGER ARPT MOSUNNY   -1  -7  75 N5        30.43F WCI -11
JAMESTOWN      SUNNY     -2  -8  76 NW15      30.52F WCI -22
CARRINGTON     MOCLDY    -8 -13  77 NW14      30.54F WCI -28
HAZEN          CLOUDY    -2  -9  71 N9        30.56S WCI -18
STANLEY        FAIR      -9 -13  84 NW7       30.50S WCI -24
TIOGA          FAIR      -8 -11  84 NW12      30.51S WCI -27
WATFORD CITY   FAIR      -4  -9  77 N3        30.52F
$$

CITY           SKY/WX    TMP DP  RH WIND       PRES   REMARKS
GRAND FORKS    PTSUNNY    2  -8  63 NW10      30.57S WCI -14
GRAND FORKS AF SUNNY      1 -10  60 NW7       30.56F WCI -11
DEVILS LAKE    SUNNY     -5 -11  75 NW13      30.52F WCI -24
FARGO          MOSUNNY    6  -2  69 NW9       30.56S WCI  -8
GRAFTON        FAIR       0  -9  65 W10       30.59S WCI -17
GWINNER        MOCLDY     9   1  72 NW12      30.54F WCI  -6
LANGDON        CLOUDY    -6 -13  71 NW12      30.49S WCI -24
$$

CITY           SKY/WX    TMP DP  RH WIND       PRES   REMARKS
ABERDEEN       CLOUDY     8  -4  58 N8        30.54F WCI  -4
MOBRIDGE       CLOUDY     2  -5  72 N10       30.48F HAZE    WCI -14
BUFFALO          N/A      4  -3  73 E3        30.29S
RAPID CITY     LGT SNOW   2  -3  80 N10       30.34S WCI -14
GLASGOW        SUNNY     -1  -6  79 SE9       30.46F WCI -16
SIDNEY         SUNNY      3  -6  66 N6        30.54F WCI  -8
WOLF POINT     SUNNY      1  -7  68 SE3       30.53F
GLENDIVE       CLOUDY    -4  -9  79 E7        30.47F WCI -18
MILES CITY     CLOUDY     2  -5  72 NE7       30.41F WCI -11
BAKER          CLOUDY     0  -5  79 E5        30.39F WCI -10
$$

CITY           SKY/WX    TMP DP  RH WIND       PRES   REMARKS
BILLINGS       MOSUNNY    5  -1  76 NE3       30.24F
GREAT FALLS    CLOUDY     1  -7  68 SE5       30.21F WCI  -9
REGINA         MOSUNNY   -8 -13  77 NW8       30.53F FOG     WCI -23
$$




USA.gov is the U.S. government's official web portal to all federal, state and local government web resources and services.